sat.trackr.live / text

‹ back to catalog

LAPAN-A3

NORAD 41603 · 2016-040E

PAYLOAD ACTIVE UNKNOWN

§ Identity

Operator
Country
INDO
Launch date
2016-06-22
Launch site
SRILR
Launch vehicle
Mass (kg)
RCS (m²)
0.28

Purposes: earth_obs

External: N2YO · Heavens-Above · Gunter

§ Orbital elements

Epoch: 2026-05-25T03:35:46.353984Z

Period
93.94 min
Inclination
97.1486°
Eccentricity
0.0012244
Mean motion
15.32936827 rev/d
Perigee alt
458.7 km
Apogee alt
475.4 km
Semi-major
6,845.2 km
B*
9.2197e-5
RAAN
142.0565°
Arg perigee
97.2170°
Mean anomaly
263.0465°
Rev number
55,128

§ Raw data

LAPAN-A31 41603U 16040E   26145.14984206  .00002864  00000+0  92197-4 0  99982 41603  97.1486 142.0565 0012244  97.2170 263.0465 15.32936827551286

JSON: /api/v1/satellites/41603 · /tle

For live sub-satellite position, see the globe view (requires WebGL).

§ Visibility from observer

Set your observer location to see the next 7 days of passes ≥ 10°. The values pass through the URL so the page stays shareable.

No JS? Fill the form by hand. The geolocation button needs JavaScript.

§ Radio — SatNOGS DB

ModeDescriptionDownlinkUplink
FFSK Mode 1200bps FFSK 437.425 MHz
FM Mode X 8.200 GHz

2 transmitters · refreshed weekly from db.satnogs.org